UAL571 PHLI-PHNL

Flight info

Callsign UAL571
Flight time 0h 23m
Altitude 19000
Route LIH V15 SHIGI SAKKI JULLE5
Aircraft B738/M-SDE2E3FGHIRWXY/LB1

Departure

Time 2026-04-24 00:32
Airport Lihue Airport (PHLI)

Arrival

Time 2026-04-24 00:55
Airport Daniel K. Inouye International Airport (PHNL)
Time Latitude Longitude Altitude Speed Heading
2026-04-24 00:11 21.97884 -159.34710 152 ft 0 kts 314°
2026-04-24 00:21 21.97883 -159.34710 152 ft 2 kts 314°
2026-04-24 00:22 21.97869 -159.34694 152 ft 3 kts 315°
2026-04-24 00:22 21.97854 -159.34678 152 ft 3 kts 315°
2026-04-24 00:22 21.97848 -159.34662 152 ft 2 kts 234°
2026-04-24 00:22 21.97849 -159.34661 152 ft 0 kts 231°
2026-04-24 00:28 21.97840 -159.34669 152 ft 4 kts 218°
2026-04-24 00:28 21.97804 -159.34674 152 ft 6 kts 166°
2026-04-24 00:28 21.97762 -159.34640 147 ft 9 kts 136°
2026-04-24 00:29 21.97703 -159.34616 141 ft 11 kts 202°
2026-04-24 00:29 21.97644 -159.34671 145 ft 11 kts 223°
2026-04-24 00:29 21.97590 -159.34729 150 ft 11 kts 225°
2026-04-24 00:29 21.97539 -159.34786 157 ft 10 kts 226°
2026-04-24 00:30 21.97488 -159.34841 153 ft 10 kts 226°
2026-04-24 00:30 21.97440 -159.34895 152 ft 10 kts 225°
2026-04-24 00:30 21.97388 -159.34938 152 ft 7 kts 197°
2026-04-24 00:30 21.97344 -159.34924 151 ft 8 kts 142°
2026-04-24 00:31 21.97316 -159.34865 151 ft 10 kts 71°
2026-04-24 00:31 21.97398 -159.34771 152 ft 43 kts 44°
2026-04-24 00:31 21.97808 -159.34333 127 ft 121 kts 44°
2026-04-24 00:31 21.98547 -159.33550 375 ft 162 kts 43°
2026-04-24 00:32 21.99226 -159.32572 1330 ft 166 kts 65°
2026-04-24 00:32 21.99292 -159.31315 2070 ft 177 kts 109°
2026-04-24 00:32 21.98652 -159.30165 2722 ft 185 kts 118°
2026-04-24 00:32 21.97922 -159.28987 3237 ft 199 kts 119°
2026-04-24 00:33 21.97124 -159.27708 3720 ft 211 kts 119°
2026-04-24 00:33 21.96297 -159.26369 4199 ft 219 kts 120°
2026-04-24 00:33 21.95458 -159.24948 4688 ft 230 kts 120°
2026-04-24 00:33 21.94597 -159.23445 5219 ft 242 kts 118°
2026-04-24 00:34 21.93690 -159.21870 5731 ft 253 kts 119°
2026-04-24 00:34 21.92751 -159.20213 6251 ft 265 kts 119°
2026-04-24 00:34 21.91781 -159.18475 6771 ft 275 kts 120°
2026-04-24 00:34 21.90801 -159.16673 7243 ft 283 kts 119°
2026-04-24 00:35 21.89808 -159.14849 7867 ft 282 kts 119°
2026-04-24 00:35 21.88807 -159.13019 8593 ft 284 kts 120°
2026-04-24 00:35 21.87803 -159.11184 9315 ft 286 kts 119°
2026-04-24 00:35 21.86791 -159.09341 10068 ft 286 kts 119°
2026-04-24 00:36 21.85764 -159.07499 10743 ft 287 kts 119°
2026-04-24 00:36 21.84725 -159.05663 11431 ft 287 kts 120°
2026-04-24 00:36 21.83689 -159.03827 12147 ft 287 kts 119°
2026-04-24 00:36 21.82654 -159.01994 12878 ft 286 kts 120°
2026-04-24 00:37 21.81626 -159.00161 13619 ft 286 kts 119°
2026-04-24 00:37 21.80491 -158.98400 14312 ft 287 kts 129°
2026-04-24 00:37 21.79202 -158.96768 15005 ft 286 kts 129°
2026-04-24 00:37 21.77908 -158.95142 15710 ft 285 kts 129°
2026-04-24 00:38 21.76617 -158.93524 16423 ft 284 kts 129°
2026-04-24 00:38 21.75334 -158.91927 17150 ft 281 kts 129°
2026-04-24 00:38 21.74063 -158.90347 17892 ft 277 kts 129°
2026-04-24 00:38 21.72810 -158.88791 18560 ft 275 kts 129°
2026-04-24 00:39 21.71534 -158.87206 18886 ft 286 kts 129°
2026-04-24 00:39 21.70207 -158.85551 19103 ft 301 kts 129°
2026-04-24 00:39 21.68795 -158.83780 19119 ft 322 kts 129°
2026-04-24 00:39 21.67313 -158.81917 19123 ft 342 kts 129°
2026-04-24 00:40 21.65700 -158.79885 19107 ft 363 kts 129°
2026-04-24 00:40 21.64038 -158.77796 19114 ft 382 kts 129°
2026-04-24 00:40 21.62272 -158.75577 19107 ft 400 kts 129°
2026-04-24 00:40 21.60452 -158.73287 19096 ft 399 kts 129°
2026-04-24 00:41 21.58677 -158.71056 19078 ft 386 kts 129°
2026-04-24 00:41 21.56956 -158.68889 18739 ft 382 kts 129°
2026-04-24 00:41 21.55217 -158.66701 18133 ft 386 kts 129°
2026-04-24 00:41 21.53460 -158.64496 17476 ft 389 kts 129°
2026-04-24 00:42 21.51699 -158.62284 16882 ft 391 kts 129°
2026-04-24 00:42 21.49926 -158.60058 16269 ft 393 kts 129°
2026-04-24 00:42 21.48157 -158.57814 15654 ft 394 kts 126°
2026-04-24 00:42 21.46906 -158.55231 15038 ft 391 kts 102°
2026-04-24 00:43 21.46645 -158.52354 14502 ft 386 kts 88°
2026-04-24 00:43 21.46610 -158.49472 13923 ft 387 kts 93°
2026-04-24 00:43 21.46127 -158.46625 13294 ft 390 kts 104°
2026-04-24 00:43 21.45207 -158.43889 12672 ft 390 kts 112°
2026-04-24 00:44 21.44011 -158.41280 12061 ft 390 kts 117°
2026-04-24 00:44 21.42673 -158.38750 11470 ft 389 kts 119°
2026-04-24 00:44 21.41263 -158.36271 10882 ft 388 kts 122°
2026-04-24 00:44 21.39805 -158.33881 10294 ft 377 kts 123°
2026-04-24 00:45 21.38373 -158.31577 9698 ft 366 kts 122°
2026-04-24 00:45 21.36983 -158.29327 9082 ft 357 kts 122°
2026-04-24 00:45 21.35637 -158.27129 8472 ft 348 kts 122°
2026-04-24 00:45 21.34331 -158.24985 7952 ft 338 kts 122°
2026-04-24 00:46 21.32838 -158.23100 7443 ft 330 kts 142°
2026-04-24 00:46 21.30774 -158.22176 7104 ft 319 kts 173°
2026-04-24 00:46 21.28636 -158.22445 6869 ft 307 kts 202°
2026-04-24 00:46 21.26963 -158.23718 6638 ft 295 kts 227°
2026-04-24 00:47 21.25605 -158.25353 6401 ft 285 kts 229°
2026-04-24 00:47 21.24338 -158.26917 6146 ft 279 kts 229°
2026-04-24 00:47 21.23201 -158.28573 5859 ft 275 kts 248°
2026-04-24 00:47 21.22961 -158.30572 5627 ft 273 kts 283°
2026-04-24 00:48 21.23792 -158.32351 5398 ft 268 kts 318°
2026-04-24 00:48 21.25379 -158.33305 5160 ft 261 kts 352°
2026-04-24 00:48 21.27157 -158.33274 4943 ft 254 kts
2026-04-24 00:48 21.28906 -158.33031 4711 ft 253 kts
2026-04-24 00:49 21.30604 -158.32631 4431 ft 249 kts 28°
2026-04-24 00:49 21.31819 -158.31360 4179 ft 247 kts 64°
2026-04-24 00:49 21.32109 -158.29573 3938 ft 246 kts 92°
2026-04-24 00:49 21.31979 -158.27749 3704 ft 245 kts 93°
2026-04-24 00:50 21.31830 -158.25930 3458 ft 245 kts 95°
2026-04-24 00:50 21.31585 -158.24126 3205 ft 244 kts 99°
2026-04-24 00:50 21.31458 -158.22349 3031 ft 236 kts 75°
2026-04-24 00:50 21.32145 -158.20785 3022 ft 231 kts 60°
2026-04-24 00:51 21.32560 -158.19142 3008 ft 233 kts 90°
2026-04-24 00:51 21.32481 -158.17403 2999 ft 233 kts 87°
2026-04-24 00:51 21.32513 -158.15692 2993 ft 228 kts 86°
2026-04-24 00:51 21.32535 -158.14007 2979 ft 225 kts 87°
2026-04-24 00:52 21.32539 -158.12335 2996 ft 223 kts 86°
2026-04-24 00:52 21.32537 -158.10650 2910 ft 230 kts 87°
2026-04-24 00:52 21.32535 -158.08908 2627 ft 234 kts 87°
2026-04-24 00:52 21.32532 -158.07197 2338 ft 233 kts 87°
2026-04-24 00:53 21.32531 -158.05474 2046 ft 228 kts 87°
2026-04-24 00:53 21.32527 -158.03810 1736 ft 219 kts 86°
2026-04-24 00:53 21.32526 -158.02258 1456 ft 203 kts 86°
2026-04-24 00:53 21.32525 -158.00797 1216 ft 185 kts 88°
2026-04-24 00:54 21.32524 -157.99483 1005 ft 165 kts 87°
2026-04-24 00:54 21.32525 -157.98310 771 ft 148 kts 88°
2026-04-24 00:54 21.32525 -157.97231 595 ft 145 kts 88°
2026-04-24 00:54 21.32538 -157.96180 401 ft 141 kts 89°
2026-04-24 00:55 21.32535 -157.95116 215 ft 143 kts 88°
2026-04-24 00:55 21.32532 -157.94042 53 ft 143 kts 89°
2026-04-24 00:55 21.32533 -157.93065 24 ft 115 kts 90°
2026-04-24 00:55 21.32531 -157.92442 23 ft 47 kts 90°
2026-04-24 00:56 21.32598 -157.92191 26 ft 33 kts 59°
2026-04-24 00:56 21.32687 -157.92017 23 ft 26 kts 62°
2026-04-24 00:56 21.32787 -157.91868 24 ft 24 kts 43°
2026-04-24 00:56 21.32883 -157.91838 25 ft 5 kts 10°
2026-04-24 00:57 21.32914 -157.91814 26 ft 7 kts 62°
2026-04-24 00:57 21.32930 -157.91755 23 ft 6 kts 72°
2026-04-24 00:57 21.32933 -157.91745 23 ft 0 kts 70°